| time (UTC) | temp C | wind direction | speed KPH | gust KPH | rain 1hr cm | rain 24hr cm | rain mn cm | humidity % | barometer mb |
| 20260504050456 | 8 | 308 | 0.0 | 0.0 | 0.00 | 0.00 | 0.00 | 79 | 1014.4 |
| 20260504045953 | 8 | 308 | 0.0 | 0.0 | 0.00 | 0.00 | 0.00 | 79 | 1014.4 |
| 20260504045449 | 8 | 308 | 0.0 | 0.0 | 0.00 | 0.00 | 0.00 | 79 | 1014.6 |
| 20260504044945 | 8 | 308 | 0.0 | 0.0 | 0.00 | 0.00 | 0.00 | 79 | 1014.5 |
| 20260504044443 | 8 | 308 | 0.0 | 0.0 | 0.00 | 0.00 | 0.00 | 80 | 1014.5 |
| 20260504043940 | 8 | 308 | 0.0 | 1.6 | 0.00 | 0.00 | 0.00 | 79 | 1014.4 |
| 20260504043437 | 8 | 308 | 0.0 | 0.0 | 0.00 | 0.00 | 0.00 | 79 | 1014.5 |
| 20260504042934 | 8 | 308 | 0.0 | 0.0 | 0.00 | 0.00 | 0.00 | 78 | 1014.6 |
| 20260504042431 | 8 | 309 | 0.0 | 0.0 | 0.00 | 0.00 | 0.00 | 77 | 1014.5 |
| 20260504041927 | 8 | 308 | 0.0 | 0.0 | 0.00 | 0.00 | 0.00 | 77 | 1014.5 |
| 20260504041424 | 8 | 309 | 0.0 | 0.0 | 0.00 | 0.00 | 0.00 | 77 | 1014.7 |
| 20260504040920 | 8 | 308 | 0.0 | 0.0 | 0.00 | 0.00 | 0.00 | 76 | 1014.7 |
| 20260504040418 | 8 | 308 | 0.0 | 0.0 | 0.00 | 0.00 | 0.00 | 77 | 1014.8 |
| 20260504035913 | 8 | 308 | 0.0 | 0.0 | 0.00 | 0.00 | 0.00 | 75 | 1014.7 |
| 20260504035411 | 8 | 308 | 0.0 | 0.0 | 0.00 | 0.00 | 0.00 | 75 | 1014.5 |
| 20260504034908 | 8 | 308 | 0.0 | 0.0 | 0.00 | 0.00 | 0.00 | 74 | 1014.8 |
| 20260504034405 | 8 | 308 | 0.0 | 0.0 | 0.00 | 0.00 | 0.00 | 74 | 1014.6 |
| 20260504033902 | 8 | 308 | 0.0 | 0.0 | 0.00 | 0.00 | 0.00 | 75 | 1014.6 |
| 20260504033400 | 8 | 308 | 0.0 | 0.0 | 0.00 | 0.00 | 0.00 | 75 | 1014.7 |
| 20260504032856 | 8 | 308 | 0.0 | 0.0 | 0.00 | 0.00 | 0.00 | 75 | 1014.6 |
| 20260504032353 | 8 | 308 | 0.0 | 0.0 | 0.00 | 0.00 | 0.00 | 74 | 1014.6 |
| 20260504031850 | 8 | 308 | 0.0 | 0.0 | 0.00 | 0.00 | 0.00 | 73 | 1014.6 |
| 20260504031347 | 8 | 308 | 0.0 | 0.0 | 0.00 | 0.00 | 0.00 | 74 | 1014.6 |
| 20260504030843 | 8 | 308 | 0.0 | 0.0 | 0.00 | 0.00 | 0.00 | 72 | 1014.7 |
| 20260504030341 | 8 | 308 | 0.0 | 0.0 | 0.00 | 0.00 | 0.00 | 74 | 1014.8 |
| 20260504025837 | 8 | 308 | 0.0 | 1.6 | 0.00 | 0.00 | 0.00 | 72 | 1014.9 |
| 20260504025334 | 8 | 277 | 1.6 | 1.6 | 0.00 | 0.00 | 0.00 | 74 | 1014.7 |
| 20260504024830 | 8 | 277 | 0.0 | 0.0 | 0.00 | 0.00 | 0.00 | 72 | 1014.8 |
| 20260504024327 | 8 | 277 | 0.0 | 0.0 | 0.00 | 0.00 | 0.00 | 72 | 1014.8 |
| 20260504023824 | 8 | 267 | 0.0 | 1.6 | 0.00 | 0.00 | 0.00 | 74 | 1015.0 |
| 20260504023320 | 8 | 244 | 0.0 | 0.0 | 0.00 | 0.00 | 0.00 | 76 | 1014.8 |
| 20260504022816 | 8 | 244 | 0.0 | 0.0 | 0.00 | 0.00 | 0.00 | 75 | 1014.9 |
| 20260504022313 | 8 | 244 | 0.0 | 0.0 | 0.00 | 0.00 | 0.00 | 75 | 1014.6 |
| 20260504021809 | 8 | 244 | 0.0 | 0.0 | 0.00 | 0.00 | 0.00 | 75 | 1014.7 |
| 20260504021308 | 8 | 244 | 0.0 | 0.0 | 0.00 | 0.00 | 0.00 | 74 | 1014.9 |
| 20260504020804 | 8 | 244 | 0.0 | 1.6 | 0.00 | 0.00 | 0.00 | 72 | 1014.7 |
| 20260504020301 | 8 | 237 | 1.6 | 1.6 | 0.00 | 0.00 | 0.00 | 72 | 1014.7 |
| 20260504015757 | 8 | 237 | 0.0 | 1.6 | 0.00 | 0.00 | 0.00 | 72 | 1014.7 |
| 20260504015253 | 8 | 232 | 0.0 | 0.0 | 0.00 | 0.00 | 0.00 | 70 | 1014.6 |
| 20260504014749 | 8 | 232 | 0.0 | 0.0 | 0.00 | 0.00 | 0.00 | 70 | 1014.7 |
| 20260504014246 | 8 | 232 | 0.0 | 0.0 | 0.00 | 0.00 | 0.00 | 70 | 1014.5 |
| 20260504013743 | 9 | 231 | 0.0 | 0.0 | 0.00 | 0.00 | 0.00 | 70 | 1014.5 |
| 20260504013241 | 9 | 231 | 0.0 | 0.0 | 0.00 | 0.00 | 0.00 | 69 | 1014.6 |
| 20260504012737 | 9 | 231 | 0.0 | 0.0 | 0.00 | 0.00 | 0.00 | 68 | 1014.4 |
| 20260504012235 | 9 | 231 | 0.0 | 0.0 | 0.00 | 0.00 | 0.00 | 69 | 1014.5 |
| 20260504011732 | 9 | 231 | 0.0 | 0.0 | 0.00 | 0.00 | 0.00 | 70 | 1014.7 |
| 20260504011229 | 9 | 231 | 0.0 | 0.0 | 0.00 | 0.00 | 0.00 | 68 | 1014.7 |
| 20260504010725 | 10 | 231 | 0.0 | 0.0 | 0.00 | 0.00 | 0.00 | 68 | 1014.7 |
| 20260504010220 | 10 | 231 | 0.0 | 0.0 | 0.00 | 0.00 | 0.00 | 67 | 1014.7 |
| 20260504005717 | 10 | 231 | 0.0 | 0.0 | 0.00 | 0.00 | 0.00 | 64 | 1014.7 |
| 20260504005215 | 10 | 231 | 0.0 | 0.0 | 0.00 | 0.00 | 0.00 | 62 | 1014.6 |
| 20260504004712 | 10 | 231 | 0.0 | 0.0 | 0.00 | 0.00 | 0.00 | 60 | 1014.6 |
| 20260504004209 | 11 | 231 | 0.0 | 0.0 | 0.00 | 0.00 | 0.00 | 59 | 1014.7 |
| 20260504003706 | 11 | 231 | 0.0 | 0.0 | 0.00 | 0.00 | 0.00 | 56 | 1014.4 |
| 20260504003202 | 11 | 231 | 0.0 | 0.0 | 0.00 | 0.00 | 0.00 | 56 | 1014.5 |
| 20260504002659 | 11 | 231 | 0.0 | 0.0 | 0.00 | 0.00 | 0.00 | 55 | 1014.5 |
| 20260504002157 | 11 | 231 | 0.0 | 0.0 | 0.00 | 0.00 | 0.00 | 55 | 1014.4 |
| 20260504001654 | 12 | 231 | 0.0 | 0.0 | 0.00 | 0.00 | 0.00 | 55 | 1014.6 |
| 20260504001150 | 12 | 231 | 0.0 | 0.0 | 0.00 | 0.00 | 0.00 | 56 | 1014.5 |
| 20260504000647 | 12 | 231 | 0.0 | 0.0 | 0.00 | 0.00 | 0.00 | 53 | 1014.4 |
| 20260504000145 | 13 | 231 | 0.0 | 0.0 | 0.00 | 0.00 | 0.00 | 45 | 1014.5 |
| 20260503235643 | 13 | 231 | 0.0 | 0.0 | 0.00 | 0.00 | 0.00 | 44 | 1014.4 |
| 20260503235139 | 13 | 230 | 0.0 | 1.6 | 0.00 | 0.00 | 0.00 | 43 | 1014.4 |
| 20260503234638 | 13 | 243 | 1.6 | 1.6 | 0.00 | 0.00 | 0.00 | 43 | 1014.7 |
| 20260503234135 | 14 | 124 | 0.0 | 1.6 | 0.00 | 0.00 | 0.00 | 41 | 1014.6 |
| 20260503233632 | 14 | 192 | 1.6 | 3.2 | 0.00 | 0.00 | 0.00 | 38 | 1014.6 |
| 20260503233127 | 14 | 208 | 0.0 | 0.0 | 0.00 | 0.00 | 0.00 | 39 | 1014.8 |
| 20260503232624 | 15 | 201 | 0.0 | 1.6 | 0.00 | 0.00 | 0.00 | 39 | 1014.7 |
| 20260503232122 | 15 | 58 | 1.6 | 1.6 | 0.00 | 0.00 | 0.00 | 40 | 1014.8 |
| 20260503231620 | 15 | 273 | 1.6 | 3.2 | 0.00 | 0.00 | 0.00 | 37 | 1014.8 |
| 20260503231116 | 15 | 212 | 0.0 | 6.4 | 0.00 | 0.00 | 0.00 | 38 | 1014.8 |
| 20260503230613 | 15 | 146 | 0.0 | 3.2 | 0.00 | 0.00 | 0.00 | 37 | 1014.7 |
| 20260503230110 | 15 | 145 | 1.6 | 3.2 | 0.00 | 0.00 | 0.00 | 37 | 1014.9 |
| 20260503225608 | 15 | 313 | 3.2 | 4.8 | 0.00 | 0.00 | 0.00 | 37 | 1014.9 |
| 20260503225102 | 15 | 356 | 0.0 | 3.2 | 0.00 | 0.00 | 0.00 | 35 | 1014.9 |
| 20260503224600 | 15 | 279 | 3.2 | 9.7 | 0.00 | 0.00 | 0.00 | 36 | 1014.9 |
| 20260503224058 | 15 | 233 | 0.0 | 3.2 | 0.00 | 0.00 | 0.00 | 36 | 1015.0 |
| 20260503223556 | 15 | 214 | 3.2 | 6.4 | 0.00 | 0.00 | 0.00 | 35 | 1014.9 |
| 20260503223051 | 16 | 92 | 3.2 | 11.3 | 0.00 | 0.00 | 0.00 | 35 | 1015.0 |
| 20260503222549 | 16 | 34 | 3.2 | 3.2 | 0.00 | 0.00 | 0.00 | 35 | 1015.1 |
| 20260503222047 | 16 | 29 | 6.4 | 9.7 | 0.00 | 0.00 | 0.00 | 34 | 1015.0 |
| 20260503221545 | 16 | 287 | 1.6 | 11.3 | 0.00 | 0.00 | 0.00 | 34 | 1015.2 |
| 20260503221042 | 16 | 96 | 0.0 | 6.4 | 0.00 | 0.00 | 0.00 | 36 | 1015.1 |
| 20260503220538 | 16 | 292 | 3.2 | 14.5 | 0.00 | 0.00 | 0.00 | 32 | 1015.1 |
| 20260503220035 | 16 | 99 | 4.8 | 6.4 | 0.00 | 0.00 | 0.00 | 36 | 1015.1 |
| 20260503215532 | 16 | 328 | 3.2 | 3.2 | 0.00 | 0.00 | 0.00 | 33 | 1015.2 |
| 20260503215029 | 16 | 211 | 3.2 | 6.4 | 0.00 | 0.00 | 0.00 | 32 | 1015.2 |
| 20260503214527 | 16 | 178 | 3.2 | 4.8 | 0.00 | 0.00 | 0.00 | 33 | 1015.1 |
| 20260503214024 | 16 | 166 | 3.2 | 12.9 | 0.00 | 0.00 | 0.00 | 32 | 1014.9 |
| 20260503213522 | 16 | 187 | 3.2 | 9.7 | 0.00 | 0.00 | 0.00 | 34 | 1015.0 |
| 20260503213018 | 16 | 255 | 3.2 | 11.3 | 0.00 | 0.00 | 0.00 | 34 | 1015.1 |
| 20260503212516 | 16 | 296 | 4.8 | 14.5 | 0.00 | 0.00 | 0.00 | 32 | 1015.2 |
| 20260503212013 | 16 | 149 | 1.6 | 4.8 | 0.00 | 0.00 | 0.00 | 33 | 1015.1 |
| 20260503211510 | 16 | 144 | 3.2 | 14.5 | 0.00 | 0.00 | 0.00 | 33 | 1015.1 |
| 20260503211005 | 16 | 2 | 0.0 | 4.8 | 0.00 | 0.00 | 0.00 | 33 | 1015.1 |
| 20260503210503 | 16 | 195 | 3.2 | 9.7 | 0.00 | 0.00 | 0.00 | 34 | 1015.0 |
| 20260503210002 | 16 | 261 | 4.8 | 12.9 | 0.00 | 0.00 | 0.00 | 33 | 1015.1 |
| 20260503205459 | 16 | 117 | 6.4 | 11.3 | 0.00 | 0.00 | 0.00 | 34 | 1015.3 |
| 20260503204956 | 16 | 144 | 6.4 | 16.1 | 0.00 | 0.00 | 0.00 | 33 | 1015.0 |
| 20260503204453 | 16 | 196 | 6.4 | 12.9 | 0.00 | 0.00 | 0.00 | 33 | 1015.2 |
| 20260503203950 | 16 | 308 | 6.4 | 16.1 | 0.00 | 0.00 | 0.00 | 34 | 1015.3 |
| 20260503203448 | 16 | 175 | 6.4 | 16.1 | 0.00 | 0.00 | 0.00 | 34 | 1015.3 |
| 20260503202944 | 16 | 173 | 3.2 | 9.7 | 0.00 | 0.00 | 0.00 | 33 | 1015.2 |
| 20260503202442 | 16 | 117 | 4.8 | 6.4 | 0.00 | 0.00 | 0.00 | 37 | 1015.5 |
| 20260503201941 | 16 | 265 | 1.6 | 4.8 | 0.00 | 0.00 | 0.00 | 32 | 1015.6 |
| 20260503201437 | 16 | 305 | 6.4 | 9.7 | 0.00 | 0.00 | 0.00 | 35 | 1015.9 |
| 20260503200935 | 16 | 58 | 6.4 | 6.4 | 0.00 | 0.00 | 0.00 | 35 | 1015.8 |
| 20260503200431 | 16 | 336 | 9.7 | 12.9 | 0.00 | 0.00 | 0.00 | 36 | 1015.9 |
| 20260503195928 | 16 | 316 | 0.0 | 4.8 | 0.00 | 0.00 | 0.00 | 33 | 1016.0 |
| 20260503195425 | 17 | 222 | 6.4 | 11.3 | 0.00 | 0.00 | 0.00 | 32 | 1016.1 |
| 20260503194922 | 16 | 152 | 3.2 | 3.2 | 0.00 | 0.00 | 0.00 | 33 | 1016.2 |
| 20260503194419 | 16 | 169 | 6.4 | 14.5 | 0.00 | 0.00 | 0.00 | 33 | 1016.2 |
| 20260503193914 | 16 | 151 | 8.0 | 11.3 | 0.00 | 0.00 | 0.00 | 33 | 1016.3 |
| 20260503193410 | 15 | 351 | 6.4 | 9.7 | 0.00 | 0.00 | 0.00 | 37 | 1016.3 |
| 20260503192906 | 15 | 284 | 6.4 | 11.3 | 0.00 | 0.00 | 0.00 | 37 | 1016.6 |
| 20260503192401 | 16 | 144 | 4.8 | 9.7 | 0.00 | 0.00 | 0.00 | 35 | 1016.6 |
| 20260503191858 | 16 | 231 | 3.2 | 6.4 | 0.00 | 0.00 | 0.00 | 36 | 1016.7 |
| 20260503191355 | 16 | 281 | 8.0 | 12.9 | 0.00 | 0.00 | 0.00 | 33 | 1016.9 |
| 20260503190852 | 16 | 179 | 4.8 | 6.4 | 0.00 | 0.00 | 0.00 | 35 | 1016.7 |
| 20260503190349 | 15 | 183 | 4.8 | 12.9 | 0.00 | 0.00 | 0.00 | 36 | 1016.8 |
| 20260503185846 | 15 | 331 | 6.4 | 9.7 | 0.00 | 0.00 | 0.00 | 35 | 1016.9 |
| 20260503185342 | 15 | 186 | 6.4 | 9.7 | 0.00 | 0.00 | 0.00 | 36 | 1017.0 |
| 20260503184842 | 15 | 218 | 1.6 | 6.4 | 0.00 | 0.00 | 0.00 | 36 | 1017.2 |
| 20260503184338 | 15 | 304 | 3.2 | 9.7 | 0.00 | 0.00 | 0.00 | 38 | 1017.2 |
| 20260503183834 | 15 | 95 | 8.0 | 12.9 | 0.00 | 0.00 | 0.00 | 35 | 1017.3 |
| 20260503183332 | 15 | 277 | 3.2 | 11.3 | 0.00 | 0.00 | 0.00 | 36 | 1017.3 |
| 20260503182829 | 15 | 353 | 3.2 | 9.7 | 0.00 | 0.00 | 0.00 | 38 | 1017.5 |
| 20260503182328 | 15 | 42 | 1.6 | 6.4 | 0.00 | 0.00 | 0.00 | 40 | 1017.5 |
| 20260503181825 | 15 | 243 | 9.7 | 14.5 | 0.00 | 0.00 | 0.00 | 38 | 1017.2 |
| 20260503181322 | 15 | 126 | 4.8 | 4.8 | 0.00 | 0.00 | 0.00 | 39 | 1017.5 |
| 20260503180818 | 15 | 287 | 4.8 | 6.4 | 0.00 | 0.00 | 0.00 | 42 | 1017.6 |
| 20260503180316 | 14 | 240 | 3.2 | 6.4 | 0.00 | 0.00 | 0.00 | 44 | 1017.6 |
| 20260503175812 | 15 | 289 | 6.4 | 16.1 | 0.00 | 0.00 | 0.00 | 42 | 1017.6 |
| 20260503175311 | 15 | 64 | 4.8 | 4.8 | 0.00 | 0.00 | 0.00 | 37 | 1017.6 |
| 20260503174806 | 15 | 103 | 1.6 | 4.8 | 0.00 | 0.00 | 0.00 | 40 | 1017.9 |
| 20260503174304 | 14 | 338 | 6.4 | 14.5 | 0.00 | 0.00 | 0.00 | 39 | 1017.7 |
| 20260503173759 | 15 | 33 | 3.2 | 12.9 | 0.00 | 0.00 | 0.00 | 40 | 1018.0 |
| 20260503173255 | 15 | 207 | 3.2 | 16.1 | 0.00 | 0.00 | 0.00 | 36 | 1017.9 |
| 20260503172752 | 14 | 344 | 4.8 | 6.4 | 0.00 | 0.00 | 0.00 | 43 | 1017.9 |
| 20260503172250 | 14 | 53 | 3.2 | 12.9 | 0.00 | 0.00 | 0.00 | 37 | 1017.8 |
| 20260503171746 | 14 | 144 | 1.6 | 9.7 | 0.00 | 0.00 | 0.00 | 41 | 1018.1 |
| 20260503171243 | 13 | 62 | 4.8 | 9.7 | 0.00 | 0.00 | 0.00 | 39 | 1018.1 |
| 20260503170740 | 13 | 280 | 1.6 | 11.3 | 0.00 | 0.00 | 0.00 | 43 | 1018.3 |
| 20260503170237 | 14 | 218 | 3.2 | 9.7 | 0.00 | 0.00 | 0.00 | 44 | 1018.3 |
| 20260503160159 | 13 | 190 | 8.0 | 12.9 | 0.00 | 0.00 | 0.00 | 47 | 1019.1 |
| 20260503150629 | 12 | 181 | 6.4 | 9.7 | 0.00 | 0.00 | 0.00 | 49 | 1019.5 |
| 20260503150125 | 12 | 191 | 8.0 | 12.9 | 0.00 | 0.00 | 0.00 | 45 | 1019.5 |
| 20260503131019 | 7 | 150 | 1.6 | 4.8 | 0.00 | 0.00 | 0.00 | 79 | 1019.8 |
| 20260503130516 | 6 | 341 | 0.0 | 3.2 | 0.00 | 0.00 | 0.00 | 89 | 1019.9 |
| 20260503110412 | 0 | 138 | 1.6 | 3.2 | 0.00 | 0.00 | 0.00 | 94 | 1019.0 |
| 20260503090303 | 1 | 135 | 0.0 | 1.6 | 0.00 | 0.00 | 0.00 | 93 | 1018.2 |
| 20260503081237 | 0 | 127 | 0.0 | 1.6 | 0.00 | 0.00 | 0.00 | 92 | 1017.9 |
| 20260503080732 | 0 | 114 | 1.6 | 1.6 | 0.00 | 0.00 | 0.00 | 92 | 1018.0 |
| 20260503080229 | 0 | 116 | 1.6 | 1.6 | 0.00 | 0.00 | 0.00 | 92 | 1017.9 |
| 20260503072706 | 1 | 18 | 0.0 | 0.0 | 0.00 | 0.00 | 0.00 | 92 | 1017.6 |
| 20260503072203 | 1 | 18 | 0.0 | 0.0 | 0.00 | 0.00 | 0.00 | 91 | 1017.7 |
| 20260503071700 | 1 | 18 | 0.0 | 0.0 | 0.00 | 0.00 | 0.00 | 91 | 1017.6 |
| 20260503071156 | 1 | 17 | 0.0 | 0.0 | 0.00 | 0.00 | 0.00 | 91 | 1017.5 |
| 20260503070653 | 1 | 17 | 0.0 | 0.0 | 0.00 | 0.00 | 0.00 | 91 | 1017.7 |
| 20260503070152 | 1 | 17 | 0.0 | 0.0 | 0.00 | 0.00 | 0.00 | 91 | 1017.5 |